Weather in Saravena

Colombia     6°57′12″N   71°52′24″W
temp.,
°C
wind,
m/s
gust,
m/s
humid.,
%
clouds,
%
prec.,
mm/h
press.,
hPa
HPBL,
m
22 january, fri
fri2201:00+22wnw117552 0.0 101323
04:00+22nw127886 0.0 101234
07:00+23wnw247167 0.0 1014131
10:00+33ne233717 0.0 10142016
13:00+32ene233956 0.0 10112082
16:00+30ssw114892 0.0 1009306
19:00+25sse116250 0.0 101224
22:00+24w126697 0.0 101432
23 january, sat
sat2301:00+24nw126594 0.0 101329
04:00+23wnw127098 0.0 101251
07:00+24wnw246697 0.0 1015131
10:00+35ne133349 0.0 10152119
13:00+33nne233674 0.0 10122136
16:00+33n123897 0.0 10091493
19:00+26e126087 0.0 101226
22:00+23w227126 0.2 101465
24 january, sun
sun2401:00+21wnw229327 1.1 101360
04:00+20wnw22940 0.6 101270
07:00+22nw12913 1.7 101460
10:00+27nne247852 3.4 1014377
13:00+25wnw248573 7.9 1012381
16:00+29wnw245962 1.2 1009768
19:00+24wnw127446 1.2 101138
22:00+23w227860 0.2 101354
25 january, mon
mon2501:00+20wnw229478 3.1 101265
04:00+20wnw229269 0.2 101152
07:00+22n118957 0.3 101346
10:00+26ne248069 2.4 1014449
13:00+29nne136957 6.4 1011747
16:00+30nw1251100 0.4 10081075
19:00+24nw127090 0.4 101124
22:00+23nw117487 0.0 101224
26 january, tue
tue2601:00+23nw127791 0.0 101252
04:00+23nw1273100 0.0 101267
07:00+24wnw1271100 0.0 101486
10:00+29ene125595 0.1 1015782
13:00+30wnw135390 0.4 10111153
16:00+31nne124283 0.0 10091979
19:00+25n125978 0.0 101124
22:00+22w127313 0.0 101437